Location: Liberec
(50.7830°N, 15.0500°E)
Time: 04:18:31
(UTC+01:00)

ISS - Visible Passes

Search period start: 22 March 2023 00:00
Search period end: 01 April 2023 01:00
Orbit: 414 x 423 km, 51.6° (Epoch: 22 March)

Date Brightness Start Highest point End Pass type
(mag) Time Alt. Az. Time Alt. Az. Time Alt. Az.
22 Mar -3.6 18:41:22 10° WSW 18:44:41 63° SSE 18:48:00 10° ENE visible
22 Mar -3.8 20:18:07 10° W 20:21:29 74° N 20:21:37 72° NNE visible
23 Mar -3.7 19:30:16 10° W 19:33:38 77° N 19:35:46 21° E visible
23 Mar -1.6 21:07:08 10° WNW 21:08:43 25° WNW 21:08:43 25° WNW visible
24 Mar -3.9 20:19:17 10° W 20:22:38 82° N 20:22:47 78° ENE visible
25 Mar -3.7 19:31:23 10° W 19:34:44 76° N 19:36:50 21° E visible
25 Mar -1.6 21:08:12 10° W 21:09:46 24° W 21:09:46 24° W visible
26 Mar -3.8 21:20:16 10° WNW 21:23:37 70° SSW 21:23:46 68° S visible
27 Mar -3.8 20:32:19 10° WNW 20:35:41 86° SSW 20:37:45 21° ESE visible
27 Mar -1.4 22:09:18 10° W 22:10:41 19° WSW 22:10:41 19° WSW visible
28 Mar -3.0 21:21:11 10° W 21:24:21 39° SSW 21:24:40 38° SSW visible
29 Mar -3.3 20:33:08 10° W 20:36:26 54° SSW 20:38:39 18° SE visible
29 Mar -0.9 22:10:53 10° WSW 22:11:35 12° WSW 22:11:35 12° WSW visible
30 Mar -1.8 21:22:17 10° W 21:24:49 20° SW 21:25:34 18° SSW visible
31 Mar -2.2 20:33:59 10° W 20:36:55 28° SSW 20:39:36 11° SSE visible
